FENGYUN 1C DEB

Satellite information

Favourite Embed

Satellite Type and Status

DEBRISIN ORBIT

Key statistics

Satellite FENGYUN 1C DEB at a glance.

Uptime

9493

Days in orbit

Revolutions

≈ 14.4

Per day

Orbit

SSO

Sun Synchronous Orbit

Inclination

98.9

Latest

Satellite identification and parameters

Extended collection of information and parameters for FENGYUN 1C DEB.

Object identification

Identified? True

Debris? True

Object name: FENGYUN 1C DEB

International designator: 1999-025AJE

Object number (NORAD): 30516

Object ID (CCSDS): 30516

Country: PEOPLES REPUBLIC OF CHINA (PRC)

Current information (Y/N): Y

RCS size: SMALL

Orbital parameters

Period: 100.133 minutes

Inclination: 98.8525 deg

SMA: 7142.965 km

Apoapsis: 772.259 km

Periapsis: 757.4 km

RAAN: 222.2533 deg

Eccentricy: 0.0010401

Argument of periapsis: 220.8 deg

Mean anomaly: 262.0068 deg

Mean motion: 14.38086439 rev/day

Mean motion (dot): 0.00007869 rev/day2

B* drag term: 0.0026082 1/REarth

Two-line elements (TLE)

Creation date: May 5, 2025, 2:56 p.m.

Reference frame: TEME

Reference center: EARTH

Epoch: May 5, 2025, 12:37 p.m. UTC

TLE line 0: 0 FENGYUN 1C DEB

TLE line 1: 1 30516U 99025AJE 25125.52591804 .00007869 00000-0 26082-2 0 9999

TLE line 2: 2 30516 98.8525 222.2533 0010401 220.8000 262.0068 14.38086439945560

Live tracking on map

Real-time ground track for satellite FENGYUN 1C DEB.

In-orbit conjunctions

A list of the most updated potential collisions computed for object FENGYUN 1C DEB.

Target Orbit TCA Probability of collision Miss distance Type
IRIDIUM 42 LEO 2025-03-29 15:13:54 0.0002367582 463.0 (m) PAYLOAD
CZ-6A DEB LEO 2024-12-31 18:28:02 0.0001358965 691.0 (m) DEBRIS

Associated space launch

Chinese polar orbiting meteorological satellite

FENGYUN 1C DEB was lifted into orbit during the mission ‘Long March 4B | Feng Yun 1C’, on board a Long March 4B space rocket.

The launch took place on May 10, 1999, 1:33 a.m. from Launch Complex 7.

For more information about the launch, click the button.

Launch to space Long March 4B | Feng Yun 1C
Long March 4B | Feng Yun 1C

Agency: N/A

Status: Launch Successful

Launch date: May 10, 1999, 1:33 a.m. UTC

Rocket: Long March 4B

Launch pad: Launch Complex 7

Location: Taiyuan Satellite Launch Center, People's Republic of China

...

Latest news about this satellite

There are no fresh news available about this satellite. Check back as we update our databases every day.


Newsletter sign-up

Weekly statistics, charts and insights to help you stay on top of the space industry.